CAPE
5 6 7 7 7 11 6 8 10 10 7 6 6 6 4 3 3 3 3 2 2 2 1 1 1 1 1 2 1 1 1 1 1 1 1 2 2 2 3 3 3 5 5 7 7 13 21 26 26 29 29 27 27 27 25 25 25 26 27 27 27 27 30 34 34 40 42 44 42 42 39 32 27 27 19 19 15 15 15 16 16 17 20 20 20 23
6 7 7 9 9 10 6 6 7 7 4 3 4 4 3 3 3 3 2 1 1 1 1 1 1 1 1 1 0 0 0 0 1 1 3 6 7 7 6 6 6 5 7 9 9 18 26 29 29 27 24 21 19 19 15 17 17 16 15 13 13 13 17 21 21 27 32 35 34 34 31 26 20 20 15 15 16 16 19 21 21 23 23 28 28 29
5 6 8 11 11 10 5 4 5 5 4 3 3 3 4 3 3 3 2 1 1 0 0 2 2 1 1 0 0 0 0 1 3 3 6 8 9 9 8 7 7 7 10 15 15 21 24 24 24 22 19 17 14 14 12 12 12 8 6 6 6 8 12 17 17 22 26 29 28 28 23 21 16 16 15 18 20 20 24 27 27 30 31 35 35 39
5 4 5 7 7 9 6 3 4 4 5 4 3 3 3 2 3 3 3 2 2 nan 0 1 1 1 1 0 0 0 1 2 5 5 7 10 10 10 12 10 10 12 14 18 18 20 21 19 19 18 14 13 10 10 9 6 6 4 6 9 9 13 16 19 19 23 27 26 23 23 21 18 17 17 19 23 27 27 30 32 32 33 35 39 39 42
4 4 5 6 6 4 4 4 3 3 3 3 3 3 2 2 2 2 3 1 1 0 0 0 0 1 1 0 0 0 1 2 2 2 5 9 11 11 14 16 16 20 21 19 19 18 17 14 14 11 9 9 9 9 7 5 5 6 9 15 15 19 21 24 24 24 24 22 19 19 19 19 21 21 24 27 30 30 31 32 32 33 32 36 36 39
3 4 5 5 5 4 4 4 2 2 1 2 1 1 1 1 3 3 2 2 2 2 1 0 0 1 1 0 nan nan 0 1 3 3 4 7 11 11 15 15 15 19 18 14 14 12 9 8 8 7 7 7 6 6 5 5 5 6 11 16 16 20 22 23 23 20 19 16 17 17 17 18 21 21 22 25 26 26 28 30 30 29 31 33 33 34
2 4 5 3 3 4 4 3 3 3 2 2 1 1 1 0 1 1 1 2 2 2 2 1 1 nan nan nan 0 0 0 0 1 1 2 3 7 7 7 8 8 10 5 3 3 2 2 3 3 4 3 3 2 2 2 2 2 4 9 13 13 20 20 18 18 17 16 14 14 14 15 17 18 18 20 21 22 22 24 26 26 27 30 30 30 32
2 2 3 2 2 2 2 2 3 3 2 1 0 0 0 0 0 0 nan nan nan nan nan nan nan nan nan nan nan nan nan nan nan nan nan nan nan nan nan nan nan nan nan nan nan nan nan nan nan nan nan nan nan nan nan nan nan nan 0 1 1 4 8 10 10 10 10 10 10 10 9 10 13 13 14 14 13 13 14 18 18 22 26 30 30 30
1 2 2 1 1 1 2 1 2 2 3 3 1 1 0 nan nan nan nan nan nan nan nan nan nan nan nan nan nan nan nan nan nan nan nan nan nan nan nan nan nan nan nan nan nan nan nan nan nan nan nan nan nan nan nan nan nan nan nan 0 0 2 4 6 6 7 7 7 7 7 7 9 12 12 12 12 10 10 10 13 13 17 23 28 28 30
1 1 1 1 1 2 1 1 2 2 3 3 2 2 0 nan nan nan nan nan nan nan nan nan nan nan nan nan nan nan nan nan nan nan nan nan nan nan nan nan nan nan nan nan nan nan nan nan nan nan nan nan nan nan nan nan nan nan nan nan nan 1 2 4 4 4 4 4 5 5 5 7 11 11 11 10 10 10 10 11 11 13 18 24 24 29
nan 0 0 1 1 1 1 1 1 1 1 0 nan nan nan nan nan nan nan nan nan nan nan nan nan nan nan nan nan nan nan nan nan nan nan nan nan nan nan nan nan nan nan nan nan nan nan nan nan nan nan nan nan nan nan nan nan nan nan nan nan 0 1 1 1 1 2 2 3 3 5 6 10 10 11 10 10 10 10 11 11 12 14 18 18 23
nan nan nan nan nan nan nan nan nan nan nan nan nan nan nan nan nan nan nan nan nan nan nan nan nan nan nan nan nan nan nan nan nan nan nan nan nan nan nan nan nan nan nan nan nan nan nan nan nan nan nan nan nan nan nan nan nan nan nan nan nan 0 0 0 0 0 0 2 3 3 4 6 9 9 13 10 10 10 11 11 11 12 13 15 15 17
nan nan nan nan nan nan nan nan nan nan nan nan nan nan nan nan nan nan nan nan nan nan nan nan nan nan nan nan nan nan nan nan nan nan nan nan nan nan nan nan nan nan nan nan nan nan nan nan nan nan nan nan nan nan nan nan nan nan nan nan nan nan nan nan nan nan 1 2 4 4 5 7 10 10 13 11 11 11 11 12 12 13 15 15 15 17
nan nan nan nan nan nan nan nan nan nan nan nan nan nan nan nan nan nan nan nan nan nan nan nan nan nan nan nan nan nan nan nan nan nan nan nan nan nan nan nan nan nan nan nan nan nan nan nan nan nan nan nan nan nan nan nan nan nan nan nan nan nan nan nan nan 0 2 4 6 6 7 9 12 12 14 12 11 11 11 11 11 13 13 15 15 16
nan nan nan nan nan nan nan nan nan nan nan nan nan nan nan nan nan nan nan nan nan nan nan nan nan nan nan nan nan nan nan nan nan nan nan nan nan nan nan nan nan nan nan nan nan nan nan nan nan nan nan nan nan nan nan nan nan nan nan nan nan nan nan 1 1 2 4 6 7 7 8 9 11 11 12 13 12 12 13 12 12 12 13 14 14 16
nan nan nan nan nan nan nan nan nan nan nan nan nan nan nan nan nan nan nan nan nan nan nan nan nan nan nan nan nan nan nan nan nan nan nan nan nan nan nan nan nan nan nan nan nan nan nan nan nan nan nan nan nan nan nan nan nan nan nan 0 0 1 2 4 4 5 6 6 7 7 8 9 10 10 11 11 12 12 12 13 13 14 14 15 15 15
nan nan nan nan nan nan nan nan nan nan nan nan nan nan nan nan nan nan nan nan nan nan nan nan nan nan nan nan nan nan nan nan nan nan nan nan nan nan nan nan nan nan nan nan nan nan nan nan nan nan nan nan nan nan nan 0 0 0 1 2 2 4 5 5 5 6 6 7 7 7 8 8 8 8 9 10 10 10 12 13 13 14 15 15 15 15
nan nan nan nan nan nan nan nan nan nan nan nan nan nan nan nan nan nan nan nan nan nan nan nan nan nan nan nan nan nan nan nan nan nan nan nan nan nan nan nan nan nan nan nan nan nan nan nan nan nan nan nan nan nan nan 0 0 1 2 2 2 3 4 4 4 5 5 7 7 7 7 7 7 7 8 9 10 10 11 12 12 13 14 15 15 14
nan nan nan nan nan nan nan nan nan nan nan nan nan nan nan nan nan nan nan nan nan nan nan nan nan nan nan nan nan nan nan nan nan nan nan nan nan nan nan nan nan nan nan nan nan nan nan nan nan nan nan nan nan nan nan nan nan 0 0 1 1 2 2 3 3 3 4 5 6 6 7 7 8 8 8 9 9 9 10 11 11 12 12 13 13 12
nan nan nan nan nan nan nan nan nan nan nan nan nan nan nan nan nan nan nan nan nan nan nan nan nan nan nan nan nan nan nan nan nan nan nan nan nan nan nan nan nan nan nan nan nan nan nan nan nan nan nan nan nan nan nan nan nan nan 0 0 0 1 1 2 2 2 3 4 6 6 6 6 8 8 8 9 8 8 10 10 10 11 12 12 12 13
nan nan nan nan nan nan nan nan nan nan nan nan nan nan nan nan nan nan nan nan nan nan nan nan nan nan nan nan nan nan nan nan nan nan nan nan nan nan nan nan nan nan nan nan nan nan nan nan nan nan nan nan nan nan nan nan nan nan nan nan nan 0 0 1 1 2 2 3 4 4 5 6 7 7 8 8 9 9 9 10 10 11 11 13 13 14
nan nan nan nan nan nan nan nan nan nan nan nan nan nan nan nan nan nan nan nan nan nan nan nan nan nan nan nan nan nan nan nan nan nan nan nan nan nan nan nan nan nan nan nan nan nan nan nan nan nan nan nan nan nan nan nan nan nan nan nan nan nan 0 0 0 1 2 3 3 3 5 7 7 7 7 8 8 8 9 10 10 11 12 13 13 14
nan nan nan nan nan nan nan nan nan nan nan nan nan nan nan nan nan nan nan nan nan nan nan nan nan nan nan nan nan nan nan nan nan nan nan nan nan nan nan nan nan nan nan nan nan nan nan nan nan nan nan nan nan nan nan nan nan nan nan nan nan nan 0 0 0 1 2 2 4 4 6 7 7 7 7 8 8 8 9 10 10 11 12 13 13 13
nan nan nan nan nan nan nan nan nan nan nan nan nan nan nan nan nan nan nan nan nan nan nan nan nan nan nan nan nan nan nan nan nan nan nan nan nan nan nan nan nan nan nan nan nan nan nan nan nan nan nan nan nan nan nan nan nan nan nan nan nan nan 0 0 0 1 2 3 4 4 6 7 7 7 8 8 9 9 8 10 10 10 12 12 12 13
nan nan nan nan nan nan nan nan nan nan nan nan nan nan nan nan nan nan nan nan nan nan nan nan nan nan nan nan nan nan nan nan nan nan nan nan nan nan nan nan nan nan nan nan nan nan nan nan nan nan nan nan nan nan nan nan nan nan nan nan nan nan 0 0 0 0 1 2 3 3 4 4 5 5 5 6 7 7 8 8 8 9 10 12 12 13
nan nan nan nan nan nan 0 5 12 12 nan nan nan nan nan nan nan nan nan nan nan nan nan nan nan nan nan nan nan nan nan nan nan nan nan nan nan nan nan nan nan nan nan nan nan nan nan nan nan nan nan nan nan nan nan nan nan nan nan nan nan nan nan nan nan 0 0 0 0 0 1 1 2 2 3 5 6 6 7 8 8 10 10 11 11 12
6 4 8 8 8 4 1 0 nan nan 4 1 nan nan nan nan nan nan nan nan nan nan 1 0 0 nan nan nan nan nan nan nan nan nan nan nan nan nan nan nan nan nan nan nan nan nan nan nan nan nan nan nan nan nan nan nan nan nan nan nan nan nan nan nan nan nan nan nan 0 0 1 1 2 2 3 6 6 6 7 8 8 9 9 9 9 12
4 1 0 nan nan nan nan nan nan nan nan 0 3 3 nan nan nan nan 3 0 0 1 1 nan nan nan nan nan nan nan nan nan nan nan nan nan nan nan nan nan nan nan nan nan nan nan nan nan nan nan nan nan nan nan nan nan nan nan nan nan nan nan nan nan nan nan nan nan 0 0 1 1 3 3 4 5 6 6 8 9 9 9 9 7 7 4
0 0 nan nan nan nan nan nan nan nan nan nan nan nan nan nan 1 1 1 nan nan nan 0 nan nan nan nan nan nan nan nan nan nan nan nan nan nan nan nan nan nan nan nan nan nan nan nan nan nan nan nan nan nan nan nan nan nan nan nan nan nan nan nan nan nan nan nan nan 0 0 1 2 2 2 4 5 6 6 7 9 9 10 8 5 5 2
nan nan nan nan nan nan nan nan nan nan nan nan nan nan nan nan 1 1 nan nan nan nan nan nan nan nan nan nan nan nan nan nan nan nan nan nan nan nan nan nan nan nan nan nan nan nan nan nan nan nan nan nan nan nan nan nan nan nan nan nan nan nan nan nan nan nan nan nan nan nan 0 1 1 1 2 3 5 5 6 7 7 9 4 3 3 3
nan nan nan nan nan nan nan nan nan nan nan nan nan nan nan nan nan nan nan nan nan nan nan nan nan nan nan nan nan nan nan nan nan nan nan nan nan nan nan nan nan nan nan nan nan nan nan nan nan nan nan nan nan nan nan nan nan nan nan nan nan nan nan nan nan nan nan nan nan nan nan 0 0 0 1 2 4 4 6 8 8 8 4 3 3 3
nan nan nan nan nan nan nan nan nan nan nan nan nan nan nan nan nan nan nan nan nan nan nan nan nan nan nan nan nan nan nan nan nan nan nan nan nan nan nan nan nan nan 1 0 0 nan nan nan nan nan nan nan nan nan nan nan nan nan nan nan nan nan nan nan nan nan nan nan nan nan nan nan nan nan 0 1 2 2 3 5 5 6 4 3 3 3
nan nan nan nan nan nan nan nan nan nan nan nan nan nan nan nan nan nan nan nan nan nan nan nan nan nan nan nan nan nan nan nan nan nan nan nan nan nan 1 0 0 0 0 0 0 0 nan nan nan nan nan nan nan nan nan nan nan nan nan nan nan nan nan nan nan nan nan nan nan nan nan nan nan nan nan 0 2 2 3 4 4 7 9 4 4 4
nan nan nan nan nan nan nan nan nan nan nan nan nan nan nan nan nan nan nan nan nan nan nan nan nan nan nan nan nan nan nan nan nan nan nan nan 0 0 1 0 0 0 0 0 0 0 nan nan nan nan nan nan nan nan nan nan nan nan nan nan nan nan nan nan nan nan nan nan nan nan nan nan nan nan nan 0 1 1 3 5 5 8 13 11 11 9
nan nan nan nan nan nan nan nan nan nan nan nan nan nan nan nan nan nan nan nan nan nan nan nan nan nan nan nan nan nan nan nan nan nan 3 2 3 3 1 0 0 0 0 0 0 0 nan nan nan nan nan nan nan nan nan nan nan nan nan nan nan nan nan nan nan nan nan nan nan nan nan nan nan nan nan nan 1 1 5 8 8 10 13 17 17 15
nan nan nan nan nan nan nan nan nan nan nan nan nan nan nan nan nan nan nan nan nan nan nan nan nan nan nan nan nan nan nan nan nan nan 2 4 3 3 1 0 0 1 0 1 1 1 0 0 0 0 nan nan nan nan nan nan nan nan nan nan nan nan nan nan nan nan nan nan nan nan nan nan nan nan nan 1 3 3 6 9 9 10 12 13 13 14
nan nan nan nan nan nan nan nan nan nan nan nan nan nan nan nan nan nan nan nan nan nan nan nan nan nan nan nan nan nan nan nan nan nan nan 1 2 2 1 0 0 1 1 1 1 1 1 0 0 nan nan nan nan nan nan nan nan nan nan nan nan nan nan nan nan nan nan nan nan nan nan nan nan nan 0 2 3 3 4 5 5 5 5 7 7 9
nan nan nan nan nan nan nan nan nan nan nan nan nan nan nan nan nan nan nan nan nan nan nan nan nan nan nan nan nan nan nan nan nan nan nan nan 1 1 2 1 1 1 2 2 2 1 1 0 0 nan nan nan nan nan nan nan nan nan nan nan nan nan nan nan nan nan nan nan nan nan nan nan nan nan nan nan nan nan nan nan nan 1 3 3 3 6
nan nan nan nan nan nan nan nan nan nan nan nan nan nan nan nan nan nan nan nan nan nan nan nan nan nan nan nan nan nan 0 nan nan nan nan nan nan nan 2 2 2 1 2 3 3 3 1 0 0 nan nan nan nan nan nan nan nan nan nan nan nan nan nan nan nan 0 nan nan nan nan nan nan nan nan nan nan nan nan nan nan nan 0 1 0 0 2
nan nan nan nan nan nan nan nan nan nan nan nan nan nan nan nan nan nan nan nan nan nan nan nan nan nan nan nan nan nan nan nan nan nan nan nan nan nan 0 3 3 2 3 5 5 4 3 2 2 1 1 0 nan nan nan nan nan nan 0 nan nan nan nan nan nan nan nan nan nan nan nan nan nan nan nan nan 0 0 nan nan nan nan 0 0 0 nan
nan nan nan nan nan nan nan nan nan nan nan nan nan nan nan nan nan nan nan nan nan nan nan nan nan nan nan nan nan nan nan nan nan nan nan nan nan nan nan 1 1 3 4 6 6 6 5 2 2 2 1 0 0 0 0 nan nan 1 2 nan nan nan nan 0 0 nan nan nan nan nan 0 0 0 0 0 0 0 0 0 0 0 nan 0 0 0 0
nan nan nan nan nan nan nan nan nan nan nan nan nan nan nan nan nan nan nan nan nan nan nan nan nan nan nan nan nan nan nan nan nan nan nan nan nan nan nan nan nan 1 6 6 6 5 5 4 4 2 1 1 1 1 0 nan nan 1 1 0 0 0 nan nan nan nan nan nan nan nan 1 0 0 0 0 1 1 1 1 1 1 2 2 1 1 1
nan nan nan nan nan nan nan nan nan nan nan nan nan nan nan nan nan nan nan nan nan nan nan nan nan nan nan nan nan nan nan nan nan nan nan nan nan nan nan nan nan 0 2 5 5 3 4 5 5 3 2 2 1 1 0 0 0 0 0 1 1 1 nan nan nan nan nan 0 0 0 0 0 1 1 1 1 1 1 2 3 3 6 5 2 2 2
nan nan nan nan nan nan nan nan nan nan nan nan nan nan nan nan nan nan nan nan nan nan nan nan nan nan nan nan nan nan nan nan nan nan nan nan nan nan nan nan nan 0 1 6 6 4 3 3 3 2 2 2 1 1 0 0 0 0 0 0 0 1 0 nan nan nan nan 0 0 0 0 1 1 1 2 2 1 1 2 2 2 1 4 3 3 3
nan nan nan nan nan nan 0 nan nan nan nan nan nan nan nan nan nan nan nan nan nan nan nan nan nan nan nan nan nan nan nan nan nan nan nan nan nan nan nan nan nan 0 2 4 4 5 3 2 2 2 2 3 2 2 1 0 0 0 0 1 1 1 1 0 0 0 0 0 0 0 1 3 3 3 2 1 2 2 2 2 2 2 3 3 3 3
nan nan nan 0 0 0 nan nan nan nan nan nan nan nan nan nan nan nan nan nan nan nan nan nan nan nan nan nan nan nan nan nan nan nan nan nan nan nan nan nan nan 0 1 2 2 4 5 3 3 3 3 3 2 2 1 0 0 0 0 0 0 0 0 0 0 0 0 0 0 0 1 3 3 3 2 2 2 2 1 2 2 2 2 2 2 3
nan nan nan nan nan nan nan nan nan nan nan 0 nan nan nan nan nan nan nan nan nan nan nan nan nan nan nan nan nan nan nan nan nan nan nan nan nan nan nan nan nan nan nan 0 0 0 4 6 6 4 2 2 1 1 0 0 0 0 0 0 0 1 1 1 1 0 0 1 0 0 3 6 4 4 3 2 2 2 1 1 1 1 1 2 2 1
nan nan nan nan nan nan nan nan nan nan nan nan nan nan nan nan nan nan nan nan nan nan 0 nan nan nan nan nan nan nan nan nan nan nan nan nan nan nan nan nan nan nan nan nan nan 0 2 3 3 4 3 1 0 0 nan nan nan 0 0 0 0 1 1 1 1 0 2 3 5 5 6 7 4 4 3 2 1 1 0 0 0 0 1 1 1 0
nan nan nan nan nan nan nan nan nan nan nan nan nan nan nan nan 1 1 nan nan nan nan nan nan nan nan nan nan nan nan nan nan nan nan nan nan nan nan nan nan nan nan nan nan nan nan 0 3 3 3 2 1 0 0 0 nan nan 0 1 1 1 2 1 1 1 1 2 3 3 3 5 4 3 3 3 1 1 1 nan 0 0 nan 0 1 1 0
nan nan nan nan nan nan nan nan nan nan nan nan nan nan nan nan nan nan nan nan nan nan nan nan nan nan nan nan nan nan nan nan nan nan nan nan 0 0 0 0 0 0 0 0 0 0 1 2 2 4 7 2 0 0 0 0 0 0 1 2 2 2 2 2 2 2 2 2 4 4 3 4 3 3 3 1 1 1 0 0 0 0 0 0 0 0
nan nan nan nan nan nan nan nan nan nan nan nan nan nan nan nan nan nan nan nan nan nan nan 0 0 nan nan nan nan nan nan nan nan nan nan nan 0 0 1 1 1 1 0 nan nan nan nan nan nan nan 3 8 2 2 0 1 1 1 2 2 2 2 2 1 1 1 2 1 3 3 2 3 3 3 3 2 2 2 1 0 0 0 0 0 0 1
CIN
-0 -0 -0 -0 -0 -0 -0 -0 -0 -0 -0 -0 -0 -0 -0 -0 -0 -0 -0 -0 -0 -0 -0 -0 -0 -0 -0 -0 -0 -0 -0 -0 -0 -0 -0 -0 -0 -0 -0 -0 -0 -0 -0 -0 -0 -0 -0 -0 -0 -0 -0 -0 -0 -0 -0 -0 -0 -0 -0 -0 -0 -0 -0 -0 -0 -0 -0 -0 -0 -0 -0 -0 -0 -0 -0 -0 -0 -0 -0 -0 -0 -0 -0 -0 -0 -0
-0 -0 -0 -0 -0 -0 -0 -0 -0 -0 -0 -0 -0 -0 -0 -0 -0 -0 -0 -0 -0 -0 -0 -0 -0 -0 -0 -0 -0 -0 -0 -0 -0 -0 -0 -0 -0 -0 -0 -0 -0 -0 -0 -0 -0 -0 -0 -0 -0 -0 -0 -0 -0 -0 -0 -0 -0 -0 -0 -0 -0 -0 -0 -0 -0 -0 -0 -0 -0 -0 -0 -0 -0 -0 -0 -0 -0 -0 -0 -0 -0 -0 -0 -0 -0 -0
-0 -0 -0 -0 -0 -0 -0 -0 -0 -0 -0 -0 -0 -0 -0 -0 -0 -0 -0 -0 -0 -0 -0 -0 -0 -0 -0 -0 -0 -0 -0 -0 -0 -0 -0 -0 -0 -0 -0 -0 -0 -0 -0 -0 -0 -0 -0 -0 -0 -0 -0 -0 -0 -0 -0 -0 -0 -0 -0 -0 -0 -0 -0 -0 -0 -0 -0 -0 -0 -0 -0 -0 -0 -0 -0 -0 -0 -0 -0 -0 -0 -0 -0 -0 -0 -0
-0 -0 -0 -0 -0 -0 -0 -0 -0 -0 -0 -0 -0 -0 -0 -0 -0 -0 -0 -0 -0 nan -0 -0 -0 -0 -0 -0 -0 -0 -0 -0 -0 -0 -0 -0 -0 -0 -0 -0 -0 -0 -0 -0 -0 -0 -0 -0 -0 -0 -0 -0 -0 -0 -0 -0 -0 -0 -0 -0 -0 -0 -0 -0 -0 -0 -0 -0 -0 -0 -0 -0 -0 -0 -0 -0 -0 -0 -0 -0 -0 -0 -0 -0 -0 -0
-0 -0 -0 -0 -0 -0 -0 -0 -0 -0 -0 -0 -0 -0 -0 -0 -0 -0 -0 -0 -0 -0 -0 -0 -0 -0 -0 -0 -0 -0 -0 -0 -0 -0 -0 -0 -0 -0 -0 -0 -0 -0 -0 -0 -0 -0 -0 -0 -0 -0 -0 -0 -0 -0 -0 -0 -0 -0 -0 -0 -0 -0 -0 -0 -0 -0 -0 -0 -0 -0 -0 -0 -0 -0 -0 -0 -0 -0 -0 -0 -0 -0 -0 -0 -0 -0
-0 -0 -0 -0 -0 -0 -0 -0 -0 -0 -0 -0 -0 -0 -0 -0 -0 -0 -0 -0 -0 -0 -0 -0 -0 -0 -0 -0 nan nan -0 -0 -0 -0 -0 -0 -0 -0 -0 -0 -0 -0 -0 -0 -0 -0 -0 -0 -0 -0 -0 -0 -0 -0 -0 -0 -0 -0 -0 -0 -0 -0 -0 -0 -0 -0 -0 -0 -0 -0 -0 -0 -0 -0 -0 -0 -0 -0 -0 -0 -0 -0 -0 -0 -0 -0
-0 -0 -0 -0 -0 -0 -0 -0 -0 -0 -0 -0 -0 -0 -0 -0 -0 -0 -0 -0 -0 -0 -0 -0 -0 nan nan nan -0 -0 -0 -1 -0 -0 -0 -0 -0 -0 -0 -0 -0 -0 -0 -0 -0 -0 -0 -0 -0 -0 -0 -0 -0 -0 -0 -0 -0 -0 -0 -0 -0 -0 -0 -0 -0 -0 -0 -0 -0 -0 -0 -0 -0 -0 -0 -0 -0 -0 -0 -0 -0 -0 -0 -0 -0 -0
-0 -0 -0 -0 -0 -0 -0 -0 -0 -0 -0 -0 -0 -0 -0 -0 -0 -0 nan nan nan nan nan nan nan nan nan nan nan nan nan nan nan nan nan nan nan nan nan nan nan nan nan nan nan nan nan nan nan nan nan nan nan nan nan nan nan nan -0 -0 -0 -0 -0 -0 -0 -0 -0 -0 -0 -0 -0 -0 -0 -0 -0 -0 -0 -0 -0 -0 -0 -0 -0 -0 -0 -0
-0 -0 -0 -0 -0 -0 -0 -0 -0 -0 -0 -0 -0 -0 -0 nan nan nan nan nan nan nan nan nan nan nan nan nan nan nan nan nan nan nan nan nan nan nan nan nan nan nan nan nan nan nan nan nan nan nan nan nan nan nan nan nan nan nan nan -0 -0 -0 -0 -0 -0 -0 -0 -0 -0 -0 -0 -0 -0 -0 -0 -0 -0 -0 -0 -0 -0 -0 -0 -0 -0 -0
-0 -0 -0 -0 -0 -0 -0 -0 -0 -0 -0 -0 -0 -0 -0 nan nan nan nan nan nan nan nan nan nan nan nan nan nan nan nan nan nan nan nan nan nan nan nan nan nan nan nan nan nan nan nan nan nan nan nan nan nan nan nan nan nan nan nan nan nan -0 -0 -0 -0 -0 -0 -0 -0 -0 -0 -0 -0 -0 -0 -0 -0 -0 -0 -0 -0 -0 -0 -0 -0 -0
nan -0 -0 -0 -0 -0 -0 -0 -0 -0 -0 -0 nan nan nan nan nan nan nan nan nan nan nan nan nan nan nan nan nan nan nan nan nan nan nan nan nan nan nan nan nan nan nan nan nan nan nan nan nan nan nan nan nan nan nan nan nan nan nan nan nan -0 -0 -0 -0 -0 -0 -0 -0 -0 -0 -0 -0 -0 -0 -0 -0 -0 -0 -0 -0 -0 -0 -0 -0 -0
nan nan nan nan nan nan nan nan nan nan nan nan nan nan nan nan nan nan nan nan nan nan nan nan nan nan nan nan nan nan nan nan nan nan nan nan nan nan nan nan nan nan nan nan nan nan nan nan nan nan nan nan nan nan nan nan nan nan nan nan nan -0 -0 -0 -0 -0 -0 -0 -0 -0 -0 -0 -0 -0 -0 -0 -0 -0 -0 -0 -0 -0 -0 -0 -0 -0
nan nan nan nan nan nan nan nan nan nan nan nan nan nan nan nan nan nan nan nan nan nan nan nan nan nan nan nan nan nan nan nan nan nan nan nan nan nan nan nan nan nan nan nan nan nan nan nan nan nan nan nan nan nan nan nan nan nan nan nan nan nan nan nan nan nan -0 -0 -0 -0 -0 -0 -0 -0 -0 -0 -0 -0 -0 -0 -0 -0 -0 -0 -0 -0
nan nan nan nan nan nan nan nan nan nan nan nan nan nan nan nan nan nan nan nan nan nan nan nan nan nan nan nan nan nan nan nan nan nan nan nan nan nan nan nan nan nan nan nan nan nan nan nan nan nan nan nan nan nan nan nan nan nan nan nan nan nan nan nan nan -0 -0 -0 -0 -0 -0 -0 -0 -0 -0 -0 -0 -0 -0 -0 -0 -0 -0 -0 -0 -0
nan nan nan nan nan nan nan nan nan nan nan nan nan nan nan nan nan nan nan nan nan nan nan nan nan nan nan nan nan nan nan nan nan nan nan nan nan nan nan nan nan nan nan nan nan nan nan nan nan nan nan nan nan nan nan nan nan nan nan nan nan nan nan -0 -0 -0 -0 -0 -0 -0 -0 -0 -0 -0 -0 -0 -0 -0 -0 -0 -0 -0 -0 -0 -0 -0
nan nan nan nan nan nan nan nan nan nan nan nan nan nan nan nan nan nan nan nan nan nan nan nan nan nan nan nan nan nan nan nan nan nan nan nan nan nan nan nan nan nan nan nan nan nan nan nan nan nan nan nan nan nan nan nan nan nan nan -0 -0 -0 -0 -0 -0 -0 -0 -0 -0 -0 -0 -0 -0 -0 -0 -0 -0 -0 -0 -0 -0 -0 -0 -0 -0 -0
nan nan nan nan nan nan nan nan nan nan nan nan nan nan nan nan nan nan nan nan nan nan nan nan nan nan nan nan nan nan nan nan nan nan nan nan nan nan nan nan nan nan nan nan nan nan nan nan nan nan nan nan nan nan nan -0 -0 -0 -0 -0 -0 -0 -0 -0 -0 -0 -0 -0 -0 -0 -0 -0 -0 -0 -0 -0 -0 -0 -0 -0 -0 -0 -0 -0 -0 -0
nan nan nan nan nan nan nan nan nan nan nan nan nan nan nan nan nan nan nan nan nan nan nan nan nan nan nan nan nan nan nan nan nan nan nan nan nan nan nan nan nan nan nan nan nan nan nan nan nan nan nan nan nan nan nan -0 -0 -0 -0 -0 -0 -0 -0 -0 -0 -0 -0 -0 -0 -0 -0 -0 -0 -0 -0 -0 -0 -0 -0 -0 -0 -0 -0 -0 -0 -0
nan nan nan nan nan nan nan nan nan nan nan nan nan nan nan nan nan nan nan nan nan nan nan nan nan nan nan nan nan nan nan nan nan nan nan nan nan nan nan nan nan nan nan nan nan nan nan nan nan nan nan nan nan nan nan nan nan -0 -0 -0 -0 -0 -0 -0 -0 -0 -0 -0 -0 -0 -0 -0 -0 -0 -0 -0 -0 -0 -0 -0 -0 -0 -0 -0 -0 -0
nan nan nan nan nan nan nan nan nan nan nan nan nan nan nan nan nan nan nan nan nan nan nan nan nan nan nan nan nan nan nan nan nan nan nan nan nan nan nan nan nan nan nan nan nan nan nan nan nan nan nan nan nan nan nan nan nan nan -0 -0 -0 -0 -0 -0 -0 -0 -0 -0 -0 -0 -0 -0 -0 -0 -0 -0 -0 -0 -0 -0 -0 -0 -0 -0 -0 -0
nan nan nan nan nan nan nan nan nan nan nan nan nan nan nan nan nan nan nan nan nan nan nan nan nan nan nan nan nan nan nan nan nan nan nan nan nan nan nan nan nan nan nan nan nan nan nan nan nan nan nan nan nan nan nan nan nan nan nan nan nan -0 -0 -0 -0 -0 -0 -0 -0 -0 -0 -0 -0 -0 -0 -0 -0 -0 -0 -0 -0 -0 -0 -0 -0 -0
nan nan nan nan nan nan nan nan nan nan nan nan nan nan nan nan nan nan nan nan nan nan nan nan nan nan nan nan nan nan nan nan nan nan nan nan nan nan nan nan nan nan nan nan nan nan nan nan nan nan nan nan nan nan nan nan nan nan nan nan nan nan -0 -0 -0 -0 -0 -0 -0 -0 -0 -0 -0 -0 -0 -0 -0 -0 -0 -0 -0 -0 -0 -0 -0 -0
nan nan nan nan nan nan nan nan nan nan nan nan nan nan nan nan nan nan nan nan nan nan nan nan nan nan nan nan nan nan nan nan nan nan nan nan nan nan nan nan nan nan nan nan nan nan nan nan nan nan nan nan nan nan nan nan nan nan nan nan nan nan -0 -0 -0 -0 -0 -0 -0 -0 -0 -0 -0 -0 -0 -0 -0 -0 -0 -0 -0 -0 -0 -0 -0 -0
nan nan nan nan nan nan nan nan nan nan nan nan nan nan nan nan nan nan nan nan nan nan nan nan nan nan nan nan nan nan nan nan nan nan nan nan nan nan nan nan nan nan nan nan nan nan nan nan nan nan nan nan nan nan nan nan nan nan nan nan nan nan -0 -0 -0 -0 -0 -0 -0 -0 -0 -0 -0 -0 -0 -0 -0 -0 -0 -0 -0 -0 -0 -0 -0 -0
nan nan nan nan nan nan nan nan nan nan nan nan nan nan nan nan nan nan nan nan nan nan nan nan nan nan nan nan nan nan nan nan nan nan nan nan nan nan nan nan nan nan nan nan nan nan nan nan nan nan nan nan nan nan nan nan nan nan nan nan nan nan -0 -0 -0 -0 -0 -0 -0 -0 -0 -0 -0 -0 -0 -0 -0 -0 -0 -0 -0 -0 -0 -0 -0 -0
nan nan nan nan nan nan -11 -0 -1 -1 nan nan nan nan nan nan nan nan nan nan nan nan nan nan nan nan nan nan nan nan nan nan nan nan nan nan nan nan nan nan nan nan nan nan nan nan nan nan nan nan nan nan nan nan nan nan nan nan nan nan nan nan nan nan nan -0 -0 -0 -0 -0 -0 -0 -0 -0 -0 -0 -0 -0 -0 -0 -0 -0 -0 -0 -0 -0
-3 -1 -0 -0 -0 -0 -0 -1 nan nan -0 -4 nan nan nan nan nan nan nan nan nan nan -0 -0 -0 nan nan nan nan nan nan nan nan nan nan nan nan nan nan nan nan nan nan nan nan nan nan nan nan nan nan nan nan nan nan nan nan nan nan nan nan nan nan nan nan nan nan nan -0 -0 -0 -0 -0 -0 -0 -0 -0 -0 -0 -0 -0 -0 -0 -0 -0 -0
-0 -1 -4 nan nan nan nan nan nan nan nan -0 -0 -0 nan nan nan nan -0 -0 -0 -0 -0 nan nan nan nan nan nan nan nan nan nan nan nan nan nan nan nan nan nan nan nan nan nan nan nan nan nan nan nan nan nan nan nan nan nan nan nan nan nan nan nan nan nan nan nan nan -0 -0 -0 -0 -0 -0 -0 -0 -0 -0 -0 -0 -0 -0 -0 -0 -0 -0
-18 -16 nan nan nan nan nan nan nan nan nan nan nan nan nan nan -0 -0 -0 nan nan nan -0 nan nan nan nan nan nan nan nan nan nan nan nan nan nan nan nan nan nan nan nan nan nan nan nan nan nan nan nan nan nan nan nan nan nan nan nan nan nan nan nan nan nan nan nan nan -0 -0 -0 -0 -0 -0 -0 -0 -0 -0 -0 -0 -0 -0 -0 -0 -0 -0
nan nan nan nan nan nan nan nan nan nan nan nan nan nan nan nan -0 -0 nan nan nan nan nan nan nan nan nan nan nan nan nan nan nan nan nan nan nan nan nan nan nan nan nan nan nan nan nan nan nan nan nan nan nan nan nan nan nan nan nan nan nan nan nan nan nan nan nan nan nan nan -0 -0 -0 -0 -0 -0 -0 -0 -0 -0 -0 -0 -0 -0 -0 -0
nan nan nan nan nan nan nan nan nan nan nan nan nan nan nan nan nan nan nan nan nan nan nan nan nan nan nan nan nan nan nan nan nan nan nan nan nan nan nan nan nan nan nan nan nan nan nan nan nan nan nan nan nan nan nan nan nan nan nan nan nan nan nan nan nan nan nan nan nan nan nan -0 -0 -0 -0 -0 -0 -0 -0 -0 -0 -0 -0 -0 -0 -0
nan nan nan nan nan nan nan nan nan nan nan nan nan nan nan nan nan nan nan nan nan nan nan nan nan nan nan nan nan nan nan nan nan nan nan nan nan nan nan nan nan nan -0 -0 -0 nan nan nan nan nan nan nan nan nan nan nan nan nan nan nan nan nan nan nan nan nan nan nan nan nan nan nan nan nan -0 -0 -0 -0 -0 -0 -0 -0 -0 -0 -0 -0
nan nan nan nan nan nan nan nan nan nan nan nan nan nan nan nan nan nan nan nan nan nan nan nan nan nan nan nan nan nan nan nan nan nan nan nan nan nan -0 -0 -0 -0 -0 -0 -0 -0 nan nan nan nan nan nan nan nan nan nan nan nan nan nan nan nan nan nan nan nan nan nan nan nan nan nan nan nan nan -0 -0 -0 -0 -0 -0 -0 -0 -0 -0 -0
nan nan nan nan nan nan nan nan nan nan nan nan nan nan nan nan nan nan nan nan nan nan nan nan nan nan nan nan nan nan nan nan nan nan nan nan -0 -0 -0 -0 -0 -0 -0 -0 -0 -0 nan nan nan nan nan nan nan nan nan nan nan nan nan nan nan nan nan nan nan nan nan nan nan nan nan nan nan nan nan -0 -0 -0 -0 -0 -0 -0 -0 -0 -0 -0
nan nan nan nan nan nan nan nan nan nan nan nan nan nan nan nan nan nan nan nan nan nan nan nan nan nan nan nan nan nan nan nan nan nan -0 -0 -0 -0 -0 -0 -0 -0 -0 -0 -0 -0 nan nan nan nan nan nan nan nan nan nan nan nan nan nan nan nan nan nan nan nan nan nan nan nan nan nan nan nan nan nan -0 -0 -0 -0 -0 -0 -0 -0 -0 -0
nan nan nan nan nan nan nan nan nan nan nan nan nan nan nan nan nan nan nan nan nan nan nan nan nan nan nan nan nan nan nan nan nan nan -0 -0 -0 -0 -0 -0 -0 -0 -0 -0 -0 -0 -0 -0 -0 -0 nan nan nan nan nan nan nan nan nan nan nan nan nan nan nan nan nan nan nan nan nan nan nan nan nan -0 -0 -0 -0 -0 -0 -0 -0 -0 -0 -0
nan nan nan nan nan nan nan nan nan nan nan nan nan nan nan nan nan nan nan nan nan nan nan nan nan nan nan nan nan nan nan nan nan nan nan -0 -0 -0 -0 -0 -0 -0 -0 -0 -0 -0 -0 -0 -0 nan nan nan nan nan nan nan nan nan nan nan nan nan nan nan nan nan nan nan nan nan nan nan nan nan -0 -0 -0 -0 -0 -0 -0 -0 -0 -0 -0 -0
nan nan nan nan nan nan nan nan nan nan nan nan nan nan nan nan nan nan nan nan nan nan nan nan nan nan nan nan nan nan nan nan nan nan nan nan -0 -0 -0 -0 -0 -0 -0 -0 -0 -0 -0 -0 -0 nan nan nan nan nan nan nan nan nan nan nan nan nan nan nan nan nan nan nan nan nan nan nan nan nan nan nan nan nan nan nan nan -0 -0 -0 -0 -0
nan nan nan nan nan nan nan nan nan nan nan nan nan nan nan nan nan nan nan nan nan nan nan nan nan nan nan nan nan nan -0 nan nan nan nan nan nan nan -0 -0 -0 -0 -0 -0 -0 -0 -0 -0 -0 nan nan nan nan nan nan nan nan nan nan nan nan nan nan nan nan -0 nan nan nan nan nan nan nan nan nan nan nan nan nan nan nan -0 -0 -0 -0 -0
nan nan nan nan nan nan nan nan nan nan nan nan nan nan nan nan nan nan nan nan nan nan nan nan nan nan nan nan nan nan nan nan nan nan nan nan nan nan -0 -0 -0 -0 -0 -0 -0 -0 -0 -0 -0 -0 -0 -0 nan nan nan nan nan nan -0 nan nan nan nan nan nan nan nan nan nan nan nan nan nan nan nan nan -0 -0 nan nan nan nan -0 -0 -0 nan
nan nan nan nan nan nan nan nan nan nan nan nan nan nan nan nan nan nan nan nan nan nan nan nan nan nan nan nan nan nan nan nan nan nan nan nan nan nan nan -0 -0 -0 -0 -0 -0 -0 -0 -0 -0 -0 -0 -0 -0 -0 -0 nan nan -0 -0 nan nan nan nan -0 -0 nan nan nan nan nan -0 -0 -0 -0 -0 -0 -0 -0 -0 -0 -0 nan -0 -0 -0 -0
nan nan nan nan nan nan nan nan nan nan nan nan nan nan nan nan nan nan nan nan nan nan nan nan nan nan nan nan nan nan nan nan nan nan nan nan nan nan nan nan nan -0 -0 -0 -0 -0 -0 -0 -0 -0 -0 -0 -0 -0 -0 nan nan -0 -0 -0 -0 -0 nan nan nan nan nan nan nan nan -0 -0 -0 -0 -0 -0 -0 -0 -0 -0 -0 -0 -0 -0 -0 -0
nan nan nan nan nan nan nan nan nan nan nan nan nan nan nan nan nan nan nan nan nan nan nan nan nan nan nan nan nan nan nan nan nan nan nan nan nan nan nan nan nan -3 -0 -0 -0 -0 -0 -0 -0 -0 -0 -0 -0 -0 -0 -0 -0 -0 -0 -0 -0 -0 nan nan nan nan nan -0 -0 -0 -0 -0 -0 -0 -0 -0 -0 -0 -0 -0 -0 -0 -0 -0 -0 -0
nan nan nan nan nan nan nan nan nan nan nan nan nan nan nan nan nan nan nan nan nan nan nan nan nan nan nan nan nan nan nan nan nan nan nan nan nan nan nan nan nan -7 -2 -0 -0 -0 -0 -0 -0 -0 -0 -0 -0 -0 -0 -0 -0 -0 -0 -0 -0 -0 -0 nan nan nan nan -0 -0 -0 -0 -0 -0 -0 -0 -0 -0 -0 -0 -0 -0 -0 -0 -0 -0 -0
nan nan nan nan nan nan -0 nan nan nan nan nan nan nan nan nan nan nan nan nan nan nan nan nan nan nan nan nan nan nan nan nan nan nan nan nan nan nan nan nan nan -5 -2 -0 -0 -0 -0 -0 -0 -0 -0 -0 -0 -0 -0 -0 -0 -0 -0 -0 -0 -0 -0 -0 -0 -0 -0 -0 -0 -0 -0 -0 -0 -0 -0 -0 -0 -0 -0 -0 -0 -0 -0 -0 -0 -0
nan nan nan -1 -1 -0 nan nan nan nan nan nan nan nan nan nan nan nan nan nan nan nan nan nan nan nan nan nan nan nan nan nan nan nan nan nan nan nan nan nan nan -5 -2 -0 -0 -0 -0 -0 -0 -0 -0 -0 -0 -0 -0 -0 -0 -0 -0 -0 -0 -0 -0 -0 -0 -0 -0 -0 -0 -0 -0 -0 -0 -0 -0 -0 -0 -0 -0 -0 -0 -0 -0 -0 -0 -0
nan nan nan nan nan nan nan nan nan nan nan -0 nan nan nan nan nan nan nan nan nan nan nan nan nan nan nan nan nan nan nan nan nan nan nan nan nan nan nan nan nan nan nan -4 -4 -2 -0 -0 -0 -0 -0 -0 -0 -0 -0 -0 -0 -0 -0 -0 -0 -0 -0 -0 -0 -0 -0 -0 -0 -0 -0 -0 -0 -0 -0 -0 -0 -0 -0 -0 -0 -0 -0 -0 -0 -0
nan nan nan nan nan nan nan nan nan nan nan nan nan nan nan nan nan nan nan nan nan nan -0 nan nan nan nan nan nan nan nan nan nan nan nan nan nan nan nan nan nan nan nan nan nan -1 -0 -0 -0 -0 -0 -0 -0 -0 nan nan nan -0 -0 -0 -0 -0 -0 -0 -0 -0 -0 -0 -0 -0 -0 -0 -0 -0 -0 -0 -0 -0 -0 -0 -0 -0 -0 -0 -0 -0
nan nan nan nan nan nan nan nan nan nan nan nan nan nan nan nan -0 -0 nan nan nan nan nan nan nan nan nan nan nan nan nan nan nan nan nan nan nan nan nan nan nan nan nan nan nan nan -0 -0 -0 -0 -0 -0 -0 -0 -0 nan nan -0 -0 -0 -0 -0 -0 -0 -0 -0 -0 -0 -7 -7 -2 -0 -0 -0 -0 -0 -0 -0 nan -0 -0 nan -0 -0 -0 -0
nan nan nan nan nan nan nan nan nan nan nan nan nan nan nan nan nan nan nan nan nan nan nan nan nan nan nan nan nan nan nan nan nan nan nan nan -0 -0 -0 -0 -0 -0 -0 -0 -0 -0 -0 -0 -0 -0 -0 -0 -0 -0 -0 -0 -0 -0 -0 -0 -0 -0 -0 -0 -0 -0 -0 -0 -4 -4 -5 -0 -0 -0 -0 -0 -0 -0 -0 -0 -0 -0 -0 -0 -0 -0
nan nan nan nan nan nan nan nan nan nan nan nan nan nan nan nan nan nan nan nan nan nan nan -0 -0 nan nan nan nan nan nan nan nan nan nan nan -0 -0 -0 -0 -0 -0 -0 nan nan nan nan nan nan nan -0 -0 -0 -0 -0 -0 -0 -0 -0 -0 -0 -0 -0 -0 -0 -0 -0 -0 -0 -0 -5 -0 -0 -0 -0 -0 -0 -0 -0 -0 -0 -0 -0 -0 -0 -0
Wind_Speed
1 1 1 1 1 2 3 4 4 3 3 3 3 3 4 4 5 6 7 7 6 6 5 5 5 6 7 7 7 6 5 3 2 1 0 1 2 2 3 3 3 3 3 4 5 5 6 6 6 6 6 6 7 8 9 10 11 12 13 14 14 14 14 14 14 14 13 13 12 11 11 10 10 9 9 9 9 9 9 9 9 9 10 10 10 10
1 0 0 1 1 2 2 4 4 3 3 3 3 3 3 4 4 4 4 5 5 5 4 4 4 5 5 5 4 4 3 1 0 1 2 3 3 3 4 4 4 4 4 5 5 6 6 6 6 6 6 7 8 9 10 11 11 12 13 14 14 14 14 14 13 13 13 12 11 11 10 10 10 9 9 9 9 9 10 10 10 10 10 10 10 11
0 0 1 1 1 2 2 3 4 3 3 3 3 3 3 3 3 3 3 3 3 3 3 3 3 3 3 3 2 2 1 0 2 2 3 3 4 4 4 4 4 5 5 6 6 6 7 7 7 7 7 7 8 9 10 11 11 12 13 13 14 13 13 13 12 12 11 11 10 10 9 9 9 9 9 9 10 10 10 10 10 10 10 10 10 10
1 1 1 1 1 2 2 2 3 3 3 3 3 3 3 3 3 2 2 2 2 2 2 2 2 2 2 2 1 1 0 1 2 2 3 3 3 4 4 4 5 5 6 6 7 7 7 7 7 7 7 8 8 9 10 11 12 12 13 13 13 12 12 11 11 10 10 9 9 9 9 9 9 9 9 9 10 10 10 10 10 10 10 10 10 10
1 1 1 1 1 2 2 2 2 2 2 2 3 3 3 2 2 2 2 2 2 2 2 2 2 2 2 1 1 1 1 1 2 2 2 3 3 4 4 5 6 6 6 6 6 6 6 6 6 7 7 8 9 10 10 11 12 12 12 12 12 11 11 10 10 9 9 9 8 8 8 8 9 9 9 10 10 10 10 10 10 10 10 10 10 10
1 1 1 1 1 1 1 2 2 1 1 2 2 2 2 2 2 2 1 2 2 2 1 1 1 1 1 1 1 1 2 2 2 3 3 3 4 4 5 5 6 6 5 5 5 5 5 6 6 7 8 9 10 10 11 11 12 12 12 12 11 10 10 9 9 9 9 9 8 9 9 9 9 10 10 10 10 10 10 10 10 10 10 10 10 10
1 1 1 1 1 1 1 1 1 1 1 1 1 1 1 1 1 1 1 1 1 1 1 1 1 1 1 1 2 2 2 3 4 4 4 5 5 5 5 4 4 4 4 3 4 4 5 6 7 8 9 10 11 11 12 12 12 12 12 12 11 10 10 9 9 9 9 9 9 9 9 10 10 10 10 10 11 11 11 11 11 11 11 11 10 10
1 1 1 1 1 1 1 1 1 1 1 1 1 1 1 1 1 0 0 0 0 1 1 1 1 1 1 2 2 2 2 3 3 3 4 4 4 4 4 3 3 3 3 4 5 5 7 8 9 10 11 11 12 12 13 13 13 13 13 12 11 11 10 10 10 10 10 10 10 10 10 10 11 11 11 11 11 11 11 11 11 11 11 11 11 11
2 1 1 1 1 1 1 1 1 1 1 1 0 0 1 1 1 1 1 1 0 0 1 1 1 0 1 2 2 2 2 2 2 2 2 1 1 2 2 2 3 4 5 5 6 7 8 9 10 11 12 12 13 13 13 13 13 13 13 12 12 11 11 11 11 11 11 11 11 11 11 11 11 11 11 11 11 11 11 11 11 11 11 11 11 11
2 1 1 1 1 1 0 1 1 1 1 1 1 1 0 0 0 1 1 1 1 1 1 1 1 1 1 1 2 2 2 1 1 1 2 2 2 2 2 3 3 4 6 6 7 8 9 10 11 12 12 13 13 13 13 13 13 13 13 12 12 12 11 11 11 11 11 12 12 12 12 12 12 12 12 12 11 11 11 11 11 11 11 11 11 11
1 1 1 1 1 1 1 1 1 1 1 0 0 0 0 1 1 1 1 0 1 1 1 1 1 1 2 2 2 2 2 1 1 2 3 4 4 4 4 4 4 5 6 7 7 8 9 10 11 12 12 12 13 13 13 12 12 12 12 12 12 12 12 12 12 12 12 12 12 12 12 12 12 12 12 12 11 11 11 11 11 11 11 11 11 11
1 1 1 1 1 1 1 0 0 0 0 1 1 1 1 1 1 1 1 1 0 1 1 1 1 1 2 2 2 2 2 1 1 2 2 2 3 3 3 3 3 4 5 6 7 8 9 10 10 11 11 11 11 11 11 11 11 11 11 12 12 12 12 12 12 12 12 12 12 12 12 12 12 12 12 11 11 11 11 11 11 11 11 11 11 11
1 1 1 1 1 1 0 0 0 1 1 1 1 0 0 1 1 1 1 1 1 1 1 1 1 1 2 2 2 2 2 1 1 1 1 1 1 2 1 2 2 3 3 4 5 6 7 8 9 9 9 9 10 10 10 10 10 11 11 11 12 12 12 12 12 12 12 12 12 12 12 12 12 12 11 11 11 11 11 11 11 11 11 11 11 12
1 1 0 0 0 0 0 0 0 0 0 0 1 1 1 1 1 1 0 0 1 1 1 1 0 1 2 2 2 2 2 1 1 1 0 0 1 1 1 2 2 2 3 4 4 5 6 6 6 7 8 8 9 9 9 9 10 10 11 11 11 12 12 12 12 12 12 12 12 12 11 11 11 11 11 11 11 11 11 11 11 11 11 11 12 12
1 0 0 0 0 0 0 0 0 0 0 1 1 1 1 0 0 0 0 0 0 0 1 1 0 1 1 2 2 2 2 1 1 1 1 1 0 1 1 2 2 3 3 4 4 5 5 5 5 5 6 7 7 7 8 8 9 10 10 11 11 11 12 12 12 12 12 12 11 11 11 11 11 11 11 11 11 11 11 11 11 11 12 12 12 12
0 0 0 0 0 0 0 0 1 1 1 1 0 0 0 0 0 0 0 0 0 0 0 0 0 0 1 2 2 2 2 2 1 1 2 2 1 0 0 2 3 4 3 4 4 4 4 4 4 4 5 6 7 8 9 9 9 9 10 10 10 11 11 11 11 11 11 11 11 11 11 11 11 11 11 11 11 12 12 12 12 12 12 12 12 12
0 0 0 0 0 0 0 0 0 0 0 0 0 0 1 1 1 0 0 0 0 0 1 1 0 0 0 1 2 2 2 2 1 1 2 2 1 0 1 1 3 4 4 4 4 4 4 4 3 3 4 6 7 8 8 8 9 9 9 9 10 10 10 10 11 11 11 11 11 11 11 11 11 11 12 12 12 12 12 12 12 12 12 12 13 13
0 0 0 0 0 0 0 0 0 0 0 0 0 1 1 1 1 0 0 0 0 1 1 0 0 0 0 0 1 1 2 1 1 1 2 3 2 0 1 1 2 3 4 4 4 4 3 3 3 4 4 7 8 8 9 9 9 9 9 9 10 10 10 10 11 11 11 11 11 11 11 11 11 12 12 12 12 12 12 12 12 12 12 13 13 13
0 0 0 0 0 0 0 0 0 0 0 0 0 1 1 1 0 0 0 0 0 1 1 0 0 0 1 0 1 1 1 1 1 2 3 4 3 1 2 1 2 3 4 4 4 4 3 3 4 5 6 8 9 10 10 10 10 10 10 10 10 10 10 10 11 11 11 11 11 11 11 11 12 12 12 12 12 12 12 12 12 12 12 13 13 13
1 1 1 1 0 0 0 0 0 1 1 1 1 1 1 0 0 0 0 0 0 0 0 0 1 1 1 1 0 1 1 1 1 2 3 4 3 1 1 0 1 2 3 3 3 3 3 3 4 5 7 8 9 10 11 11 11 11 10 10 10 10 10 10 11 11 11 11 11 11 11 11 11 11 11 12 12 12 12 12 12 12 12 13 13 13
1 1 1 1 1 0 0 0 0 1 1 1 1 1 1 0 0 0 0 0 0 0 0 1 1 1 1 1 0 1 1 1 1 2 2 3 2 1 1 0 1 2 3 3 3 2 2 3 3 4 6 8 10 11 11 11 11 11 10 10 10 10 10 10 10 10 10 10 10 10 11 11 11 11 11 11 11 11 11 12 12 12 13 13 13 14
1 1 1 1 1 0 0 0 0 1 2 2 1 1 0 0 0 0 1 1 1 1 1 1 0 0 0 1 1 0 0 1 1 1 1 2 2 1 1 0 1 2 3 3 2 2 2 3 4 5 7 9 11 11 12 11 11 10 10 9 9 9 9 9 9 9 9 9 9 9 10 10 10 10 10 11 11 11 11 12 12 13 13 14 14 15
2 1 2 2 1 1 0 0 0 1 2 2 1 1 1 1 1 1 1 1 1 1 1 0 0 0 1 2 1 1 1 1 1 1 1 2 2 1 1 0 1 2 3 3 3 3 4 4 5 5 7 9 10 10 10 9 9 8 8 8 8 8 7 7 8 8 8 8 8 8 9 9 10 10 10 11 11 12 12 12 13 13 14 14 15 15
2 2 2 2 2 2 1 1 1 1 2 2 1 1 1 1 0 0 0 1 1 1 1 1 1 1 1 2 2 1 1 1 1 1 1 2 2 1 0 1 2 3 4 4 4 4 5 5 5 5 5 7 8 8 8 7 6 6 6 6 6 6 6 6 6 7 7 7 8 8 9 9 10 11 11 11 12 12 13 13 13 14 14 15 15 15
2 2 2 2 3 2 1 1 1 2 2 2 2 1 1 1 1 1 1 1 1 1 1 2 2 2 1 1 1 1 1 1 1 2 1 1 2 1 0 0 2 3 4 4 4 4 5 5 5 4 3 4 5 6 5 4 4 4 4 4 5 5 6 6 7 7 8 8 9 9 10 10 11 11 12 12 12 12 13 13 13 14 14 15 15 15
3 3 2 2 2 2 3 3 2 1 1 2 2 2 2 2 2 1 1 1 1 2 3 4 4 3 1 1 1 1 1 1 1 2 1 1 2 2 1 0 1 2 4 4 5 5 5 5 4 3 2 2 3 4 4 4 4 4 5 6 6 7 7 8 8 9 9 9 10 10 10 11 11 11 12 12 12 12 13 13 13 14 14 14 15 15
5 5 5 5 6 6 7 7 7 7 6 4 2 3 3 3 2 2 2 2 2 3 4 4 4 4 2 1 1 1 1 1 1 1 1 1 2 2 1 0 0 2 4 5 5 5 5 4 3 2 2 1 2 3 4 5 6 7 8 8 8 9 9 9 9 9 9 9 10 10 10 10 11 11 11 11 12 12 12 13 13 13 14 13 13 12
7 7 7 7 7 7 7 7 7 8 9 8 6 4 3 3 3 3 4 2 2 2 4 4 4 4 2 1 1 1 1 1 1 1 2 1 1 2 1 0 1 1 3 4 4 4 4 3 2 2 2 1 2 2 4 6 7 8 9 9 10 10 9 9 9 9 9 9 9 10 10 10 10 11 11 11 12 12 12 13 13 13 13 11 9 8
6 6 6 6 6 6 7 6 7 7 8 9 8 6 2 2 3 3 2 1 1 2 3 4 4 3 2 2 1 1 1 1 1 2 2 2 1 1 1 1 1 1 3 4 4 3 2 1 1 1 1 2 2 2 3 5 7 8 8 9 9 9 9 9 9 9 9 9 10 10 10 10 11 11 11 12 12 12 13 13 13 12 10 9 8 7
4 4 4 4 5 5 5 4 5 5 6 7 7 5 3 1 2 2 1 1 1 2 3 3 3 3 2 1 2 2 1 1 2 2 2 2 1 1 0 1 1 1 2 3 3 2 1 1 0 1 1 2 3 3 3 4 5 5 6 7 7 7 8 8 9 9 9 10 10 11 11 11 12 12 12 12 13 13 13 13 12 10 8 7 7 7
2 2 2 2 3 3 3 2 3 3 4 4 4 3 2 1 0 1 1 2 2 2 3 3 3 2 2 1 1 1 1 1 2 3 3 2 1 1 0 1 1 1 1 2 3 2 2 1 1 1 1 2 3 4 4 4 4 4 4 4 4 5 6 8 8 9 9 10 11 11 12 12 12 13 13 13 13 13 13 13 12 10 7 7 7 7
1 1 1 1 2 2 2 2 2 2 2 2 2 2 1 1 0 0 1 1 2 2 2 3 3 3 2 3 2 2 1 1 2 3 3 1 1 1 1 1 2 2 1 1 2 2 2 2 2 2 2 3 4 4 4 4 4 4 4 4 3 4 5 7 7 8 8 9 10 11 12 12 13 13 13 13 13 13 13 14 12 10 7 7 7 7
1 1 1 1 1 1 1 1 1 1 1 1 1 1 1 1 0 0 1 1 1 2 2 2 2 3 3 3 3 3 2 1 2 4 4 2 1 1 1 2 2 2 2 2 2 2 2 3 3 3 4 4 4 4 4 4 4 4 4 3 3 3 4 5 6 7 7 8 9 10 11 11 12 12 13 13 13 13 14 14 13 11 9 7 7 7
1 1 1 1 1 1 1 1 0 1 0 0 1 1 1 1 0 0 0 1 1 2 2 2 3 3 3 3 3 3 3 1 3 5 5 3 2 2 2 2 2 3 3 2 2 3 3 4 4 4 4 4 3 3 3 3 3 3 3 3 3 3 4 4 5 5 6 7 7 7 8 8 9 10 11 12 12 12 13 13 13 13 12 9 8 7
1 1 1 1 1 1 1 1 0 0 0 0 0 1 0 0 0 0 0 1 1 2 2 2 2 3 3 3 3 3 3 1 2 4 5 3 2 2 2 2 2 3 3 3 3 3 3 4 5 5 5 4 4 3 2 2 2 2 2 3 3 3 4 4 5 5 6 6 6 6 6 6 6 7 8 9 11 11 13 13 13 14 14 12 11 9
1 2 1 1 1 1 1 1 1 0 0 0 0 1 1 1 1 0 1 1 1 1 2 2 3 3 3 3 3 3 3 1 2 3 3 3 3 3 3 3 3 3 3 3 3 3 3 4 5 5 6 5 4 3 2 1 1 2 2 3 4 4 4 5 5 5 5 5 5 5 5 5 5 6 7 9 11 12 13 13 13 14 14 14 13 12
1 2 1 1 1 1 1 1 1 1 1 1 1 1 1 1 1 1 1 1 1 2 2 3 3 4 4 4 4 4 4 3 2 3 4 4 3 3 3 3 3 3 3 3 3 4 4 4 5 5 5 5 4 4 3 3 3 3 3 4 4 4 5 5 5 5 5 5 5 6 6 6 6 6 7 9 10 11 12 12 13 13 14 14 14 14
1 1 1 1 1 1 1 1 1 1 1 1 1 1 2 1 2 2 1 1 2 2 2 2 3 4 5 6 6 6 5 5 5 5 5 4 4 4 4 4 4 4 4 4 4 4 4 4 5 5 4 4 5 5 5 5 5 5 5 5 5 5 5 4 4 4 4 5 6 6 6 6 6 6 6 7 7 7 8 8 9 10 11 12 13 14
1 1 1 1 1 1 1 1 1 1 1 1 1 1 2 2 2 2 2 2 2 2 2 2 2 3 4 5 6 6 6 6 6 6 5 5 4 4 4 4 4 4 4 4 4 4 4 5 5 5 5 5 5 5 5 5 5 6 6 5 5 5 4 4 3 4 4 5 6 6 6 6 6 6 6 6 5 6 6 6 6 7 8 7 8 10
1 1 1 1 1 1 1 1 1 1 1 1 1 2 2 2 2 2 2 2 2 2 2 2 3 3 3 4 5 5 6 5 5 5 5 4 4 4 4 4 5 4 4 4 4 5 5 5 6 6 6 5 5 5 5 5 6 6 7 6 4 4 4 4 4 5 5 5 5 6 6 6 6 6 6 6 6 6 6 6 6 6 6 6 6 7
1 1 1 1 1 2 2 2 1 1 1 1 1 1 1 1 1 1 1 2 2 1 1 2 2 2 3 3 4 4 4 5 5 5 4 5 5 5 4 4 4 4 4 4 5 5 5 6 6 6 6 6 7 7 7 7 7 8 8 7 6 6 6 6 6 5 5 5 5 6 6 6 6 6 6 6 6 6 6 6 7 7 7 6 6 6
2 2 1 1 1 2 2 1 2 2 2 1 1 1 1 1 1 1 2 2 2 2 1 2 2 2 3 2 2 3 3 3 4 4 4 5 5 5 5 4 4 4 4 5 5 5 5 6 6 6 6 6 6 7 7 7 7 7 7 7 7 8 7 6 5 4 4 5 5 6 7 6 6 6 6 7 7 7 7 7 8 8 8 7 6 6
2 2 2 2 2 2 2 2 2 2 2 1 1 1 1 1 1 1 2 2 2 2 2 2 2 2 3 3 3 2 2 2 3 3 4 4 5 5 5 5 5 4 4 4 5 5 6 6 6 6 6 6 7 7 8 8 7 7 7 7 7 7 5 4 4 4 5 5 6 6 6 6 6 6 6 7 7 7 7 8 9 9 9 8 7 7
2 2 2 2 2 2 2 2 2 2 2 2 2 2 2 1 2 2 2 2 2 2 2 2 1 2 3 3 3 2 2 2 2 2 2 3 4 5 5 5 5 5 5 5 5 5 5 6 6 6 6 6 7 7 8 8 8 7 7 7 7 7 6 5 5 6 6 6 6 6 6 6 6 7 7 7 7 7 7 7 7 7 8 8 8 8
2 2 2 2 3 3 2 2 2 2 2 2 2 2 2 2 2 2 2 2 2 2 2 2 2 2 2 3 2 2 2 2 2 1 1 3 4 5 5 5 5 5 5 5 5 5 5 6 6 6 6 6 7 8 8 8 8 8 8 8 8 8 8 7 7 7 7 7 7 7 7 7 7 7 7 7 7 7 7 7 7 7 7 7 8 8
2 2 2 2 2 2 3 2 2 2 2 2 2 2 2 2 2 2 2 2 2 2 2 2 2 2 3 3 3 3 3 2 2 2 2 2 2 3 4 4 5 5 5 5 6 6 6 6 6 6 6 6 7 8 8 8 8 8 8 8 7 7 7 7 7 7 7 7 7 7 7 7 7 7 7 8 7 7 7 7 7 8 8 8 8 8
2 2 3 3 3 2 2 3 3 3 3 3 2 2 2 2 2 2 2 2 2 2 2 2 2 3 3 3 3 3 3 3 3 2 2 2 2 2 3 3 4 5 5 5 6 7 7 7 7 7 6 7 7 8 8 8 8 8 8 7 7 7 7 7 7 7 7 7 7 7 7 7 7 8 8 8 8 8 7 7 7 8 8 8 8 8
3 3 3 3 3 3 3 3 3 3 4 3 3 2 2 2 3 3 3 2 2 2 2 2 2 3 3 3 3 3 4 4 4 3 3 2 2 3 2 3 3 4 5 6 7 7 8 8 8 8 8 7 7 8 8 7 7 7 7 7 7 7 7 7 7 7 7 7 7 7 7 7 7 8 8 9 8 8 8 8 7 7 7 7 8 8
3 3 3 2 2 3 3 3 3 4 4 4 4 3 3 3 4 4 3 3 2 2 2 3 3 3 4 4 4 4 4 4 4 4 3 3 3 2 2 2 2 3 4 5 6 7 7 8 9 10 9 9 9 9 8 8 7 7 7 7 7 7 7 7 7 7 7 7 7 7 7 7 7 8 8 9 10 10 9 9 8 8 7 7 8 8
2 2 2 2 2 3 3 4 4 4 4 4 4 4 3 3 3 3 3 3 3 3 3 3 4 4 4 4 4 4 4 4 4 4 4 3 3 2 2 3 3 4 4 4 4 4 5 6 7 9 11 11 11 10 9 8 7 7 7 7 7 7 7 7 7 7 7 8 7 7 7 7 7 7 8 9 10 11 10 9 8 8 7 7 7 8
2 2 2 2 2 3 3 4 4 4 4 4 4 4 4 3 3 3 3 3 3 4 4 4 4 4 4 4 4 4 4 4 4 4 4 3 3 3 3 3 3 4 4 3 3 3 3 3 4 5 7 11 12 12 9 8 8 7 7 7 7 6 7 7 7 7 8 8 8 7 7 7 7 7 7 8 9 10 10 9 9 8 7 7 7 8
Wind_Direction
35 19 359 353 22 48 48 40 47 64 77 70 61 55 53 54 54 52 49 49 51 54 56 54 52 53 57 61 62 62 62 63 65 73 201 230 237 239 241 244 246 249 255 261 265 268 270 272 273 273 273 273 273 274 274 275 277 279 280 281 282 282 283 283 284 284 285 287 289 291 293 297 300 303 306 306 305 302 299 296 293 291 289 287 286 284
57 49 28 29 55 70 65 45 46 57 70 70 64 59 60 65 63 57 51 51 52 53 56 55 54 53 53 53 54 55 56 60 197 226 227 228 228 231 234 238 244 249 255 259 262 264 265 265 265 264 263 264 267 270 272 276 279 281 282 283 283 282 282 282 283 284 285 287 289 292 295 297 299 301 301 300 297 294 291 287 285 283 281 280 279 278
106 117 85 45 54 67 72 54 50 54 64 68 68 65 67 69 67 61 56 55 56 59 62 62 63 62 58 54 51 46 41 237 230 229 228 228 229 231 235 239 245 251 256 258 258 259 258 257 257 258 259 264 270 274 278 282 283 284 284 283 281 280 280 280 281 282 284 286 288 290 292 293 295 295 294 291 289 287 284 282 281 280 279 279 279 278
155 131 102 69 61 65 70 65 60 57 59 64 66 65 64 65 62 58 52 54 58 63 65 67 70 70 66 56 42 19 305 246 237 235 234 236 238 241 243 247 251 254 256 256 255 255 254 256 259 263 268 274 280 284 286 288 288 287 285 283 281 280 279 280 281 283 285 286 288 289 290 290 289 288 287 285 284 284 283 282 282 282 282 282 281 280
144 115 96 86 78 74 71 72 70 66 60 60 58 55 53 55 53 49 43 44 48 52 56 58 61 62 64 54 29 350 306 278 265 259 256 257 259 259 259 260 259 258 257 256 256 256 259 265 271 277 283 287 290 292 293 292 291 289 287 285 283 282 282 284 285 287 289 289 289 289 288 287 286 285 285 284 284 284 284 283 283 283 282 281 280 279
118 95 82 78 79 81 76 72 72 72 68 59 50 46 42 42 42 40 33 33 34 36 39 40 42 45 46 40 12 340 322 314 311 307 302 295 289 284 279 275 271 267 264 265 266 271 278 285 290 293 295 297 297 297 296 295 294 292 291 290 289 288 289 289 290 291 291 291 290 289 288 287 286 284 284 283 283 283 282 282 281 280 279 278 277 275
111 90 77 76 76 76 73 65 65 65 69 71 65 57 47 43 37 32 28 24 20 15 13 22 23 28 31 22 3 347 334 331 329 326 321 315 310 305 300 298 295 292 290 294 298 302 304 305 304 303 303 301 300 299 297 296 295 294 294 293 293 292 291 291 291 290 290 290 289 287 286 285 284 283 282 281 280 280 279 278 278 277 276 274 273 272
116 105 88 84 83 86 78 60 48 43 46 69 99 112 110 107 95 75 51 18 352 344 337 344 359 22 35 23 8 353 340 334 329 324 319 318 319 319 319 324 330 332 328 327 324 321 318 315 311 308 305 303 300 298 296 294 293 292 292 292 292 291 289 288 288 287 287 286 285 285 284 283 282 281 280 278 277 276 275 275 275 274 274 273 272 272
107 108 96 80 74 81 90 66 45 33 27 29 56 110 139 146 153 160 181 171 125 12 347 332 328 5 46 34 19 360 342 328 312 302 300 306 314 325 336 344 348 347 343 338 332 328 324 319 314 310 306 302 299 296 293 291 290 289 288 288 288 287 286 285 284 284 284 283 283 282 281 280 279 278 277 275 274 273 272 272 272 272 273 273 273 273
84 88 88 69 52 44 54 61 48 33 14 13 7 359 338 334 183 191 195 162 122 71 25 359 346 347 17 33 24 10 352 336 328 337 6 18 22 20 16 12 3 354 345 339 333 328 323 318 313 309 305 300 296 293 290 288 286 285 284 283 283 282 282 282 282 281 281 281 281 280 279 278 277 275 274 272 271 270 269 269 269 270 271 272 273 274
71 65 73 68 59 44 44 51 49 35 3 340 305 288 302 336 321 290 252 200 119 80 51 30 13 360 352 7 11 9 3 357 1 13 23 23 25 26 26 20 6 353 343 334 328 323 318 314 310 307 303 299 295 292 289 286 284 282 281 280 279 279 278 279 279 279 279 279 278 277 276 275 274 273 272 271 270 269 268 268 269 269 270 271 272 274
77 63 61 66 65 63 67 82 108 156 230 240 233 218 168 38 356 322 287 284 331 26 25 29 31 27 10 360 357 357 360 6 12 17 17 19 22 23 24 13 358 345 336 327 320 315 312 310 308 305 303 299 296 292 289 286 284 282 280 278 277 277 276 277 277 277 276 276 275 275 274 273 272 272 271 270 269 269 269 269 270 270 271 272 272 273
86 78 77 79 78 74 69 117 174 192 215 242 261 275 68 38 13 332 291 303 341 359 350 347 25 50 45 19 1 350 348 355 4 5 356 6 16 18 9 352 337 330 326 319 312 309 308 308 307 305 303 300 297 295 292 289 285 283 280 278 276 275 275 275 274 274 273 273 272 272 271 271 271 271 271 271 271 271 271 271 272 272 273 273 273 274
103 104 114 107 99 83 46 338 260 237 246 342 351 356 10 12 350 316 274 341 9 355 315 300 341 61 66 43 19 356 342 345 350 359 347 12 26 22 354 326 315 313 314 308 304 304 307 309 308 305 303 300 298 296 293 288 284 280 277 275 274 273 272 272 272 271 271 270 270 270 270 271 271 272 273 273 273 273 273 274 274 274 274 274 274 275
112 125 131 128 113 81 18 331 312 320 19 19 6 347 316 314 303 296 223 61 18 335 280 265 237 90 84 62 33 3 341 345 354 359 339 333 21 46 359 312 303 300 301 300 299 300 304 306 303 300 298 295 293 290 287 282 277 274 273 271 270 270 270 269 269 269 269 269 270 270 271 271 272 273 274 275 275 275 275 275 275 275 275 275 275 275
98 108 117 121 117 20 357 327 321 331 4 13 353 312 270 273 40 42 66 62 19 341 341 344 358 83 105 92 63 22 347 356 9 5 328 305 294 113 89 303 297 295 293 292 293 295 300 296 291 288 288 287 285 284 283 278 274 272 271 269 269 269 269 270 270 271 271 271 272 272 272 273 273 274 275 275 275 275 275 275 275 275 276 276 276 276
81 84 102 104 88 355 338 304 302 304 327 357 15 23 18 27 32 36 71 81 62 39 34 37 358 327 104 103 80 44 357 356 7 355 311 295 290 187 112 285 289 290 292 290 290 292 295 291 288 285 282 282 283 284 284 281 278 277 276 275 275 275 275 275 274 275 275 274 274 274 274 274 274 274 274 274 274 274 274 274 275 275 275 276 276 276
99 99 108 104 89 354 319 288 247 223 233 189 81 68 57 49 41 34 58 81 84 78 60 66 59 284 299 88 82 60 3 346 341 321 294 286 284 246 106 235 270 278 285 285 286 287 289 289 288 286 282 287 289 290 290 289 287 285 284 283 282 281 280 279 278 277 276 276 275 275 274 274 274 273 273 273 273 273 273 273 274 274 275 275 276 276
133 158 162 140 153 233 282 255 211 182 182 175 140 117 88 65 46 34 26 57 89 112 126 148 182 221 253 292 81 84 35 324 313 305 295 290 291 314 103 221 258 266 275 280 284 287 288 286 285 285 287 291 292 292 292 292 290 289 288 287 285 283 281 280 278 277 276 276 275 275 274 273 273 273 273 272 272 272 273 273 274 275 275 276 276 276
152 192 203 176 157 148 237 237 211 186 173 155 133 114 105 98 61 26 19 46 56 89 136 182 206 219 234 265 89 102 117 287 294 295 292 291 297 336 85 282 271 273 276 277 281 285 285 284 283 284 286 287 288 289 290 290 290 289 288 286 285 283 281 279 277 276 276 275 274 274 273 273 273 272 273 273 273 273 274 274 275 276 276 276 277 276
141 186 203 184 166 143 112 189 183 156 145 133 124 112 108 121 123 129 118 109 117 169 199 220 218 215 215 263 271 98 97 275 288 293 292 287 283 281 82 338 290 282 280 279 275 273 274 277 277 276 278 283 285 287 287 288 288 288 286 285 284 282 280 278 277 276 275 274 274 273 273 273 273 273 273 274 274 274 275 276 276 276 277 277 276 276
129 143 169 185 200 271 19 30 89 132 144 150 151 147 136 173 199 198 176 185 191 200 209 217 224 313 284 279 300 25 57 267 272 284 290 284 278 267 104 35 283 280 281 282 279 274 271 273 272 273 276 282 285 287 288 288 287 286 285 283 282 281 279 278 277 276 275 274 274 274 274 275 275 276 276 276 277 277 277 277 277 277 277 276 276 275
112 123 145 174 198 231 317 26 117 150 168 191 207 216 176 200 218 217 186 190 195 195 190 138 9 304 260 263 261 250 202 243 251 257 267 277 280 285 90 311 278 279 283 290 294 293 287 282 278 277 280 285 287 289 289 288 286 285 284 283 283 282 282 281 281 281 280 281 281 282 282 282 282 281 281 281 280 280 279 279 278 277 277 276 275 274
112 128 147 171 190 204 214 193 175 177 190 208 215 210 170 187 202 229 158 173 160 150 150 173 216 232 228 235 229 208 170 202 227 238 244 272 282 293 14 314 293 292 293 299 303 302 297 289 283 280 283 290 293 294 293 291 290 289 289 290 292 294 295 295 295 295 294 293 292 291 289 288 287 286 285 284 282 281 281 280 278 278 276 276 275 274
126 138 154 170 183 190 191 183 175 175 184 189 188 178 162 146 126 102 97 114 135 162 204 247 261 267 259 259 238 196 147 171 211 229 228 265 278 285 290 293 296 297 302 306 305 300 294 290 287 287 295 300 303 305 305 307 309 314 318 319 319 318 316 313 310 308 304 300 297 294 292 290 288 287 285 284 282 281 280 279 278 277 276 275 275 273
118 124 128 120 101 55 23 20 11 340 250 184 174 171 169 153 142 137 158 173 189 220 256 274 280 281 276 275 266 246 150 166 203 227 229 263 280 282 272 254 287 295 303 306 305 299 293 290 293 303 328 323 320 323 333 344 348 349 348 340 334 329 324 318 313 308 304 300 297 294 292 290 288 286 284 283 282 281 280 279 278 278 277 277 275 273
76 70 63 52 38 25 15 7 355 343 333 317 255 193 175 170 179 204 228 219 219 233 257 269 275 278 277 247 235 237 196 169 191 215 227 258 276 280 282 319 304 299 302 304 303 299 294 293 303 324 352 339 330 337 349 353 352 350 346 338 332 326 321 316 311 307 304 300 297 295 292 290 288 286 285 284 283 282 281 281 281 280 280 279 277 274
55 51 45 38 30 21 13 3 353 343 334 324 307 272 196 190 210 233 242 231 225 236 252 261 270 277 282 268 256 253 248 197 181 184 204 230 258 270 284 327 314 299 302 303 302 298 293 296 309 328 334 325 321 329 340 344 344 341 336 330 325 321 318 315 311 307 304 301 299 296 294 292 291 289 288 287 286 285 285 285 284 283 282 280 277 273
42 42 41 34 26 17 8 359 347 336 328 322 316 311 303 215 222 237 239 197 198 231 246 255 262 270 279 284 286 276 254 216 170 165 185 208 238 257 282 296 293 298 310 308 306 301 289 289 299 311 306 312 317 323 328 335 335 332 326 321 317 315 313 311 309 307 304 302 300 298 297 295 294 293 292 291 290 289 288 288 287 286 283 280 276 274
20 20 22 18 15 9 2 352 340 330 324 320 321 326 347 270 234 237 214 165 187 223 241 250 255 259 267 288 291 280 257 188 154 158 183 206 230 253 277 280 285 311 326 322 318 313 300 286 277 282 289 306 314 318 321 324 321 318 313 311 308 306 305 305 305 304 303 302 301 299 298 297 296 295 294 293 292 291 290 289 289 287 283 279 275 273
352 347 342 348 351 352 348 341 334 330 327 328 335 345 1 359 271 238 181 184 199 217 231 240 243 240 233 256 270 272 267 155 148 159 186 211 235 253 231 295 309 322 334 333 326 320 317 314 296 278 285 299 304 308 309 308 306 302 297 295 294 293 296 299 301 302 301 301 299 299 298 297 296 295 294 293 293 291 291 290 289 286 282 279 275 273
308 307 307 313 322 329 331 333 333 333 336 347 360 11 15 26 41 183 200 208 211 216 222 230 231 230 224 232 242 252 265 164 158 167 183 205 233 235 207 288 307 313 293 316 313 308 307 305 301 297 295 296 296 295 294 293 290 287 284 280 279 282 288 294 298 300 300 299 298 297 296 295 295 294 294 293 292 291 290 289 288 286 282 279 276 274
260 267 280 298 308 314 311 324 325 328 342 6 17 21 15 12 31 117 191 218 223 223 220 222 224 224 226 233 241 249 261 226 173 173 181 198 230 248 240 286 301 304 297 291 283 276 274 285 293 298 297 292 287 283 281 278 276 274 274 273 273 277 283 290 295 297 297 297 296 295 294 294 293 292 292 291 290 290 289 288 286 284 281 279 276 274
263 267 281 299 302 298 288 299 304 309 325 359 27 29 22 4 5 17 182 212 225 231 227 224 222 219 220 231 241 248 257 237 181 176 184 200 235 270 281 289 295 299 299 291 280 271 268 275 284 292 294 291 286 279 273 269 268 268 265 266 269 274 279 287 290 291 291 291 291 291 291 291 290 289 289 288 288 287 286 285 284 282 279 276 274 273
276 278 287 299 300 295 287 285 286 280 263 324 6 10 359 341 308 239 212 215 222 229 233 234 232 228 224 229 239 248 253 235 190 185 195 211 241 273 285 285 290 293 293 289 285 282 279 280 286 291 297 297 293 286 273 258 253 254 249 251 257 265 273 280 283 286 287 287 286 285 285 285 284 284 284 284 284 284 284 283 282 281 279 277 276 275
283 285 286 291 294 293 291 298 301 296 277 296 314 321 327 323 305 270 237 236 239 239 237 239 240 239 236 238 245 251 259 247 213 212 225 239 257 272 280 279 281 283 284 283 284 284 285 287 289 291 292 293 293 294 291 272 253 244 247 255 260 265 268 272 275 278 281 281 281 281 282 281 280 279 279 281 282 283 284 284 283 283 282 280 279 278
278 280 277 278 281 283 285 290 294 289 289 299 309 319 329 320 310 294 277 252 250 251 251 248 246 244 242 243 247 254 264 266 259 255 260 266 269 271 272 275 276 276 273 277 280 283 285 288 289 289 286 285 289 297 306 307 299 288 282 282 281 278 274 271 270 271 274 277 279 282 284 283 281 280 281 283 284 285 285 285 285 284 283 281 280 278
266 270 267 255 248 253 265 270 263 253 253 275 305 315 315 297 285 280 274 254 242 241 247 249 250 250 249 252 254 257 262 264 264 264 265 266 266 266 266 270 270 268 264 268 273 278 281 284 287 288 286 284 287 292 300 305 306 304 301 298 292 286 280 274 269 267 269 274 279 282 284 284 285 286 287 287 287 287 285 282 281 280 281 280 278 276
245 254 260 243 226 217 229 239 241 239 246 270 285 290 289 280 271 264 263 253 242 237 241 248 256 259 254 256 256 257 256 253 251 250 250 251 253 256 259 263 266 266 263 263 265 267 270 273 277 282 287 290 292 294 297 299 301 302 302 300 294 287 282 278 273 269 270 275 279 282 284 285 286 286 285 283 282 281 281 281 281 280 281 280 278 275
227 235 246 237 223 212 219 227 231 239 260 279 283 281 277 275 272 266 259 257 251 241 230 237 247 254 253 253 253 253 251 248 244 241 236 233 236 241 249 254 260 263 264 260 258 258 260 264 269 273 278 284 290 294 296 295 295 299 303 303 300 298 300 297 291 285 281 281 283 285 287 287 285 283 282 282 282 283 284 285 285 283 282 281 280 279
214 221 233 232 225 222 225 229 230 227 229 258 267 266 258 260 268 279 289 288 282 267 247 243 247 251 251 245 244 245 245 245 243 239 229 222 225 232 241 247 254 259 261 258 256 255 256 261 266 270 272 277 282 285 285 287 291 296 301 299 298 299 302 298 294 290 288 286 286 287 289 290 290 289 288 288 286 284 283 283 282 281 279 275 275 276
221 219 218 215 216 217 215 215 212 209 207 218 235 248 254 266 281 298 309 313 311 305 304 302 301 297 292 274 253 239 236 239 238 236 230 224 224 227 235 240 246 252 257 258 257 256 255 259 263 267 270 275 280 283 284 286 289 291 292 292 295 297 296 291 288 287 288 288 287 288 289 290 290 289 288 285 283 280 278 276 276 275 274 271 269 268
226 222 219 218 214 207 194 194 201 205 205 216 235 255 268 267 273 285 297 305 307 308 311 313 312 308 301 296 288 271 249 238 235 236 234 228 226 228 232 236 239 243 248 256 259 259 258 257 259 262 266 271 275 279 282 285 287 287 284 287 292 296 296 293 294 295 292 290 290 290 289 288 286 284 284 283 282 280 278 274 272 270 269 270 269 267
225 227 226 224 217 207 190 185 190 198 206 237 259 269 267 252 255 268 287 291 294 297 300 297 286 278 277 281 284 285 275 247 235 233 238 230 225 224 231 234 236 237 240 250 258 263 264 261 259 260 263 267 270 273 276 281 283 284 283 284 283 282 280 288 294 296 293 289 287 286 285 285 286 286 285 283 281 278 275 272 269 267 264 263 263 263
224 226 223 226 230 229 218 213 211 214 224 244 255 261 260 250 253 264 280 284 286 288 288 282 276 277 279 284 289 292 290 281 272 262 258 250 243 240 237 238 238 238 239 245 252 258 264 265 265 266 266 265 265 268 272 276 280 282 282 281 280 277 275 280 285 288 287 286 285 284 284 285 286 286 284 281 279 276 274 272 270 267 264 260 258 258
230 228 224 221 226 236 245 250 254 254 249 245 247 249 252 247 249 258 271 276 280 280 274 263 266 276 283 289 294 296 293 287 280 273 266 261 255 249 242 241 242 242 243 246 248 252 255 260 265 269 271 268 265 263 264 269 274 277 279 280 280 278 277 278 279 280 281 283 283 283 284 285 285 283 282 281 280 278 276 273 271 269 268 264 261 258
219 220 220 216 218 227 244 260 269 271 268 261 253 247 244 244 249 254 261 262 263 265 260 252 256 265 273 281 287 291 291 287 280 270 258 258 257 254 248 246 245 245 247 248 249 250 252 253 256 260 265 267 268 267 264 264 267 271 275 278 279 279 278 278 277 278 278 278 279 281 284 285 283 281 281 282 282 281 278 275 272 270 269 267 265 264
219 221 220 220 222 229 241 251 261 268 272 269 263 252 244 247 252 256 258 260 265 271 274 269 267 267 268 271 274 277 281 283 284 282 276 270 265 262 257 254 251 250 249 250 252 253 253 251 249 248 250 256 262 266 268 266 265 267 271 275 276 277 276 277 277 277 276 275 275 276 278 279 280 282 285 286 285 282 280 278 275 273 270 269 267 266
222 223 221 217 220 228 239 247 253 259 264 268 267 262 256 259 263 266 268 271 274 274 270 265 264 265 266 267 269 272 275 279 283 285 283 277 271 265 261 259 258 259 258 256 255 254 255 251 245 240 237 241 249 259 265 266 266 266 267 268 269 271 273 275 276 276 276 275 272 269 266 270 275 279 284 284 284 283 283 282 279 275 271 268 265 264
214 218 217 216 222 230 240 247 251 254 257 262 266 267 265 262 259 257 255 254 254 253 251 253 256 261 265 268 271 272 273 274 276 278 279 278 273 267 265 266 271 275 276 270 265 262 260 256 247 238 232 232 237 246 258 262 264 265 264 263 263 265 269 272 274 275 276 277 276 273 268 269 270 271 273 276 279 282 283 282 279 275 271 268 267 266
199 201 202 209 220 232 241 246 250 252 254 257 261 265 267 263 255 245 238 240 243 246 248 250 253 258 263 266 269 269 269 270 272 275 277 279 278 274 273 276 280 284 286 285 283 280 277 277 269 254 238 230 230 234 245 254 261 265 265 263 263 264 267 271 274 276 277 279 279 278 274 271 269 268 267 271 276 280 283 282 280 279 277 276 274 273